This is the latest recevied weather packets stored in our database for station/object W8CEN. If no packets are shown the sender has not sent any weather packets the latest 10 day(s).
| Time | Temp. | Humidity | Pressure | Rain* | Wind** | Luminosity | Snow |
|---|---|---|---|---|---|---|---|
| 1778026186 | 9.44° C | 95% | 987.1 hPa | 3.56 mm | - | 4 W/m² | - |
| 1778025884 | 9.44° C | 95% | 987.5 hPa | 4.83 mm | - | 6 W/m² | - |
| 1778025581 | 9.44° C | 95% | 987.1 hPa | 3.05 mm | - | 5 W/m² | - |
| 1778025279 | 9.44° C | 94% | 987.2 hPa | 1.78 mm | - | 7 W/m² | - |
| 1778024975 | 9.44° C | 94% | 987.2 hPa | 1.27 mm | - | 9 W/m² | - |
| 1778024673 | 9.44° C | 94% | 987.1 hPa | 3.05 mm | - | 11 W/m² | - |
| 1778024369 | 9.44° C | 94% | 986.8 hPa | 1.78 mm | - | 15 W/m² | - |
| 1778024067 | 10° C | 94% | 986.8 hPa | 1.78 mm | - | 16 W/m² | - |
| 1778023764 | 10° C | 94% | 987.2 hPa | 1.27 mm | - | 13 W/m² | - |
| 1778023462 | 10° C | 94% | 987.1 hPa | 1.27 mm | - | 11 W/m² | - |
| 1778023159 | 10° C | 94% | 986.9 hPa | 0 mm | - | 14 W/m² | - |
| 1778022857 | 10° C | 94% | 986.9 hPa | 0 mm | - | 25 W/m² | - |
| 1778022554 | 10° C | 94% | 986.9 hPa | 1.78 mm | - | 26 W/m² | - |
| 1778022252 | 10° C | 94% | 987 hPa | 0 mm | - | 24 W/m² | - |
| 1778021948 | 10.56° C | 94% | 987 hPa | 0 mm | - | 24 W/m² | - |
| 1778021645 | 10.56° C | 94% | 987 hPa | 0 mm | - | 24 W/m² | - |
| 1778021340 | 10.56° C | 94% | 986.8 hPa | 0 mm | - | 34 W/m² | - |
| 1778021038 | 10° C | 94% | 987 hPa | 0 mm | - | 43 W/m² | - |
| 1778020735 | 10° C | 94% | 987 hPa | 0 mm | - | 46 W/m² | - |
| 1778020432 | 10° C | 93% | 987 hPa | 0 mm | - | 42 W/m² | - |
| 1778020128 | 10° C | 93% | 987.3 hPa | 1.27 mm | - | 42 W/m² | - |
| 1778019824 | 10° C | 93% | 987.2 hPa | 1.27 mm | - | 63 W/m² | - |
| 1778019521 | 10° C | 93% | 987 hPa | 1.78 mm | - | 61 W/m² | - |
| 1778019218 | 10° C | 92% | 987.2 hPa | 3.05 mm | - | 40 W/m² | - |
| 1778018915 | 10.56° C | 94% | 987 hPa | 3.05 mm | - | 70 W/m² | - |
* Rain latest hour (hover to see other rain measurements)
** Current wind speed in m/s (hover to see current wind gust speed)